AAL69 NZAA-YSSY

Flight info

Callsign AAL69
Flight time N/A
Altitude 34000
Route VELMO DCT 38S163E DCT PLUGA DCT RIKNI N774 MARLN
Aircraft B77W/H-SDE1E2E3FGHIJ2J3J4J5M1RWXY/LB1D1

Departure

Time 2026-05-03 22:05
Airport Auckland International Airport (NZAA)

Arrival

Time N/A
Airport Sydney Kingsford Smith International Airport (YSSY)
Time Latitude Longitude Altitude Speed Heading
2026-05-03 21:41 -37.00765 174.78284 37 ft 0 kts 297°
2026-05-03 21:53 -37.00767 174.78290 37 ft 3 kts 297°
2026-05-03 21:53 -37.00780 174.78320 36 ft 4 kts 297°
2026-05-03 21:53 -37.00789 174.78351 36 ft 3 kts 275°
2026-05-03 21:53 -37.00787 174.78375 36 ft 2 kts 244°
2026-05-03 21:54 -37.00780 174.78387 36 ft 0 kts 227°
2026-05-03 21:54 -37.00789 174.78378 35 ft 1 kts 211°
2026-05-03 21:54 -37.00799 174.78375 35 ft 0 kts 182°
2026-05-03 21:58 -37.00812 174.78374 35 ft 4 kts 184°
2026-05-03 21:58 -37.00863 174.78369 34 ft 8 kts 185°
2026-05-03 21:59 -37.00929 174.78361 33 ft 11 kts 182°
2026-05-03 21:59 -37.01014 174.78394 31 ft 12 kts 163°
2026-05-03 21:59 -37.01082 174.78352 31 ft 12 kts 240°
2026-05-03 21:59 -37.01125 174.78215 31 ft 21 kts 251°
2026-05-03 22:00 -37.01178 174.78023 31 ft 25 kts 251°
2026-05-03 22:00 -37.01239 174.77805 31 ft 27 kts 251°
2026-05-03 22:00 -37.01304 174.77570 31 ft 29 kts 251°
2026-05-03 22:00 -37.01367 174.77338 29 ft 25 kts 250°
2026-05-03 22:01 -37.01413 174.77173 28 ft 13 kts 252°
2026-05-03 22:01 -37.01438 174.77119 28 ft 6 kts 212°
2026-05-03 22:01 -37.01465 174.77109 28 ft 0 kts 192°
2026-05-03 22:04 -37.01500 174.77100 28 ft 9 kts 191°
2026-05-03 22:04 -37.01564 174.77084 28 ft 8 kts 187°
2026-05-03 22:04 -37.01606 174.77115 28 ft 7 kts 105°
2026-05-03 22:04 -37.01590 174.77217 28 ft 17 kts 73°
2026-05-03 22:05 -37.01521 174.77483 30 ft 62 kts 70°
2026-05-03 22:05 -37.01284 174.78336 32 ft 145 kts 71°
2026-05-03 22:05 -37.00889 174.79767 358 ft 189 kts 71°
2026-05-03 22:05 -37.00478 174.81334 1416 ft 195 kts 71°
2026-05-03 22:06 -37.00083 174.82842 2378 ft 187 kts 70°
2026-05-03 22:06 -36.99610 174.84477 2685 ft 212 kts 69°
2026-05-03 22:06 -36.99079 174.86298 3081 ft 235 kts 70°
2026-05-03 22:06 -36.98532 174.88277 3710 ft 249 kts 70°
2026-05-03 22:07 -36.97963 174.90335 4583 ft 252 kts 71°
2026-05-03 22:07 -36.97392 174.92395 5451 ft 255 kts 71°
2026-05-03 22:07 -36.96818 174.94463 6270 ft 259 kts 71°
2026-05-03 22:07 -36.96227 174.96587 7120 ft 261 kts 71°
2026-05-03 22:08 -36.95659 174.98735 7940 ft 264 kts 78°
2026-05-03 22:08 -36.95575 175.01012 8712 ft 268 kts 98°
2026-05-03 22:08 -36.96195 175.03215 9462 ft 274 kts 120°
2026-05-03 22:08 -36.97470 175.04994 10189 ft 283 kts 142°
2026-05-03 22:09 -36.99227 175.06093 10916 ft 291 kts 157°
2026-05-03 22:09 -37.01145 175.06900 11654 ft 295 kts 159°
2026-05-03 22:09 -37.03227 175.07259 12340 ft 306 kts 182°
2026-05-03 22:10 -37.06999 175.04796 13430 ft 332 kts 232°
2026-05-03 22:10 -37.08122 175.02174 13761 ft 349 kts 250°
2026-05-03 22:10 -37.08930 174.99249 14183 ft 364 kts 252°
2026-05-03 22:10 -37.09747 174.96187 14618 ft 379 kts 252°
2026-05-03 22:11 -37.10607 174.93021 15066 ft 393 kts 252°
2026-05-03 22:11 -37.11503 174.89752 15534 ft 407 kts 252°
2026-05-03 22:11 -37.12448 174.86313 16003 ft 420 kts 252°
2026-05-03 22:11 -37.13394 174.82877 16645 ft 427 kts 252°
2026-05-03 22:12 -37.14403 174.79343 17394 ft 432 kts 248°
2026-05-03 22:12 -37.15600 174.75879 18129 ft 437 kts 246°
2026-05-03 22:12 -37.16831 174.72392 18866 ft 441 kts 246°
2026-05-03 22:12 -37.18053 174.68904 19621 ft 444 kts 247°
2026-05-03 22:13 -37.19289 174.65361 20362 ft 447 kts 247°
2026-05-03 22:13 -37.20530 174.61781 21068 ft 451 kts 247°
2026-05-03 22:13 -37.21766 174.58203 21737 ft 455 kts 247°
2026-05-03 22:13 -37.23034 174.54523 22423 ft 458 kts 247°
2026-05-03 22:14 -37.24287 174.50877 23084 ft 461 kts 247°
2026-05-03 22:14 -37.25559 174.47168 23724 ft 465 kts 247°
2026-05-03 22:14 -37.26832 174.43449 24324 ft 468 kts 247°
2026-05-03 22:14 -37.28098 174.39690 24908 ft 471 kts 249°
2026-05-03 22:15 -37.29265 174.35869 25482 ft 475 kts 250°
2026-05-03 22:15 -37.30441 174.31955 26039 ft 478 kts 250°
2026-05-03 22:15 -37.31611 174.28062 26576 ft 482 kts 250°
2026-05-03 22:15 -37.32797 174.24123 27097 ft 485 kts 250°
2026-05-03 22:16 -37.33992 174.20154 27617 ft 489 kts 250°
2026-05-03 22:16 -37.35192 174.16171 28131 ft 492 kts 250°
2026-05-03 22:16 -37.36405 174.12141 28629 ft 496 kts 250°
2026-05-03 22:16 -37.37619 174.08104 29133 ft 499 kts 250°
2026-05-03 22:17 -37.38837 174.04053 29614 ft 502 kts 250°
2026-05-03 22:17 -37.40076 173.99927 30194 ft 502 kts 250°
2026-05-03 22:17 -37.41288 173.95883 30860 ft 499 kts 250°
2026-05-03 22:17 -37.42516 173.91783 31545 ft 496 kts 250°
2026-05-03 22:18 -37.43710 173.87790 32144 ft 494 kts 250°
2026-05-03 22:18 -37.44913 173.83760 32686 ft 492 kts 250°
2026-05-03 22:18 -37.46103 173.79770 33188 ft 491 kts 250°
2026-05-03 22:18 -37.47300 173.75749 33694 ft 489 kts 250°
2026-05-03 22:19 -37.48487 173.71762 34163 ft 487 kts 250°
2026-05-03 22:19 -37.49663 173.67801 34486 ft 488 kts 250°
2026-05-03 22:19 -37.50884 173.63684 34543 ft 489 kts 250°
2026-05-03 22:20 -37.53648 173.54341 34550 ft 487 kts 250°
2026-05-03 22:20 -37.56269 173.45454 34547 ft 488 kts 250°
2026-05-03 22:21 -37.59024 173.36076 34549 ft 487 kts 250°
2026-05-03 22:21 -37.61734 173.26825 34556 ft 487 kts 250°
2026-05-03 22:22 -37.64408 173.17660 34546 ft 488 kts 250°
2026-05-03 22:22 -37.66737 173.09656 34542 ft 488 kts 250°
2026-05-03 22:23 -37.69069 173.01617 34544 ft 488 kts 250°
2026-05-03 22:23 -37.71384 172.93611 34543 ft 489 kts 250°
2026-05-03 22:24 -37.73714 172.85530 34544 ft 490 kts 250°
2026-05-03 22:24 -37.76033 172.77466 34544 ft 489 kts 250°
2026-05-03 22:25 -37.78340 172.69415 34544 ft 488 kts 250°
2026-05-03 22:25 -37.80640 172.61368 34544 ft 489 kts 250°
2026-05-03 22:26 -37.82948 172.53267 34546 ft 490 kts 250°
2026-05-03 22:26 -37.85243 172.45184 34547 ft 491 kts 250°
2026-05-03 22:27 -37.87537 172.37085 34547 ft 490 kts 249°
2026-05-03 22:27 -37.89820 172.28996 34547 ft 490 kts 250°
2026-05-03 22:28 -37.92096 172.20909 34550 ft 490 kts 250°
2026-05-03 22:28 -37.94353 172.12868 34544 ft 489 kts 250°
2026-05-03 22:29 -37.96630 172.04726 34548 ft 490 kts 250°
2026-05-03 22:29 -37.98884 171.96646 34549 ft 489 kts 250°
2026-05-03 22:30 -38.01137 171.88542 34548 ft 490 kts 249°
2026-05-03 22:30 -38.03397 171.80389 34546 ft 489 kts 250°
2026-05-03 22:31 -38.05636 171.72287 34547 ft 489 kts 250°
2026-05-03 22:31 -38.07873 171.64165 34548 ft 489 kts 249°
2026-05-03 22:32 -38.10106 171.56032 34544 ft 489 kts 249°
2026-05-03 22:32 -38.12322 171.47935 34541 ft 490 kts 249°
2026-05-03 22:33 -38.14557 171.39745 34543 ft 490 kts 249°
2026-05-03 22:33 -38.16761 171.31645 34536 ft 490 kts 250°
2026-05-03 22:34 -38.18970 171.23497 34546 ft 489 kts 250°
2026-05-03 22:34 -38.21182 171.15317 34546 ft 489 kts 250°
2026-05-03 22:35 -38.23383 171.07146 34560 ft 489 kts 250°
2026-05-03 22:35 -38.25569 170.99008 34552 ft 489 kts 250°
2026-05-03 22:36 -38.26958 170.90616 34554 ft 492 kts 265°
2026-05-03 22:36 -38.27072 170.81912 34548 ft 492 kts 268°
2026-05-03 22:37 -38.27092 170.73206 34554 ft 492 kts 268°
2026-05-03 22:37 -38.27088 170.64531 34556 ft 492 kts 269°
2026-05-03 22:38 -38.27069 170.55878 34558 ft 492 kts 269°
2026-05-03 22:38 -38.27039 170.47211 34548 ft 491 kts 269°
2026-05-03 22:39 -38.27001 170.38579 34546 ft 491 kts 268°
2026-05-03 22:39 -38.26955 170.29915 34538 ft 491 kts 269°
2026-05-03 22:40 -38.26901 170.21243 34537 ft 492 kts 269°
2026-05-03 22:40 -38.26841 170.12567 34539 ft 491 kts 269°
2026-05-03 22:41 -38.26775 170.03929 34539 ft 492 kts 269°
2026-05-03 22:41 -38.26701 169.95221 34540 ft 492 kts 269°
2026-05-03 22:42 -38.26622 169.86604 34541 ft 490 kts 269°
2026-05-03 22:42 -38.26536 169.77972 34536 ft 490 kts 269°
2026-05-03 22:43 -38.26444 169.69333 34532 ft 490 kts 269°
2026-05-03 22:43 -38.26339 169.60161 34535 ft 489 kts 269°
2026-05-03 22:44 -38.26234 169.51532 34538 ft 489 kts 269°
2026-05-03 22:44 -38.26123 169.42891 34534 ft 489 kts 269°
2026-05-03 22:45 -38.26006 169.34305 34536 ft 488 kts 270°
2026-05-03 22:45 -38.25882 169.25673 34526 ft 488 kts 270°
2026-05-03 22:46 -38.25752 169.17084 34526 ft 488 kts 270°
2026-05-03 22:46 -38.25617 169.08495 34524 ft 488 kts 270°
2026-05-03 22:47 -38.25474 168.99933 34535 ft 488 kts 270°
2026-05-03 22:47 -38.25325 168.91303 34536 ft 487 kts 270°
2026-05-03 22:48 -38.25171 168.82735 34533 ft 487 kts 270°
2026-05-03 22:48 -38.25010 168.74171 34531 ft 487 kts 270°
2026-05-03 22:49 -38.24843 168.65593 34526 ft 487 kts 270°
2026-05-03 22:49 -38.24670 168.57004 34523 ft 487 kts 270°
2026-05-03 22:50 -38.24490 168.48436 34525 ft 487 kts 270°
2026-05-03 22:50 -38.24305 168.39847 34522 ft 487 kts 270°
2026-05-03 22:51 -38.24112 168.31261 34515 ft 487 kts 270°
2026-05-03 22:51 -38.23914 168.22697 34510 ft 487 kts 270°
2026-05-03 22:52 -38.23709 168.14105 34515 ft 487 kts 270°
2026-05-03 22:52 -38.23499 168.05534 34516 ft 487 kts 270°
2026-05-03 22:53 -38.23283 167.96997 34516 ft 486 kts 270°
2026-05-03 22:53 -38.23059 167.88403 34511 ft 487 kts 270°
2026-05-03 22:54 -38.22829 167.79826 34507 ft 488 kts 270°
2026-05-03 22:54 -38.22594 167.71256 34508 ft 488 kts 270°
2026-05-03 22:55 -38.22351 167.62672 34509 ft 488 kts 270°
2026-05-03 22:55 -38.22102 167.54066 34509 ft 487 kts 270°
2026-05-03 22:56 -38.21849 167.45514 34512 ft 486 kts 270°
2026-05-03 22:56 -38.21588 167.36932 34510 ft 486 kts 270°
2026-05-03 22:57 -38.21322 167.28415 34506 ft 486 kts 271°
2026-05-03 22:57 -38.21048 167.19818 34500 ft 487 kts 271°
2026-05-03 22:58 -38.20770 167.11269 34496 ft 487 kts 271°
2026-05-03 22:58 -38.20483 167.02666 34493 ft 487 kts 270°
2026-05-03 22:59 -38.20191 166.94090 34490 ft 487 kts 271°
2026-05-03 22:59 -38.19895 166.85576 34484 ft 486 kts 271°
2026-05-03 23:00 -38.19590 166.76991 34490 ft 485 kts 271°
2026-05-03 23:00 -38.19281 166.68466 34491 ft 485 kts 271°
2026-05-03 23:01 -38.18966 166.59938 34479 ft 486 kts 271°
2026-05-03 23:01 -38.18645 166.51410 34488 ft 485 kts 271°
2026-05-03 23:02 -38.18317 166.42883 34497 ft 485 kts 271°
2026-05-03 23:02 -38.17984 166.34389 34484 ft 483 kts 272°
2026-05-03 23:03 -38.17645 166.25874 34478 ft 483 kts 272°
2026-05-03 23:03 -38.17299 166.17351 34483 ft 484 kts 272°
2026-05-03 23:04 -38.16949 166.08876 34477 ft 484 kts 272°
2026-05-03 23:04 -38.16591 166.00360 34469 ft 485 kts 272°
2026-05-03 23:05 -38.16225 165.91811 34475 ft 484 kts 272°
2026-05-03 23:05 -38.15855 165.83321 34468 ft 482 kts 272°
2026-05-03 23:06 -38.15482 165.74869 34467 ft 481 kts 272°
2026-05-03 23:06 -38.15103 165.66432 34462 ft 479 kts 272°
2026-05-03 23:07 -38.14719 165.58040 34470 ft 480 kts 272°
2026-05-03 23:07 -38.14330 165.49637 34460 ft 478 kts 272°
2026-05-03 23:08 -38.13934 165.41231 34458 ft 479 kts 272°
2026-05-03 23:08 -38.13501 165.32190 34458 ft 477 kts 273°
2026-05-03 23:09 -38.13094 165.23802 34468 ft 476 kts 273°
2026-05-03 23:09 -38.12658 165.14954 34463 ft 476 kts 273°
2026-05-03 23:10 -38.12231 165.06442 34453 ft 475 kts 273°
2026-05-03 23:10 -38.11809 164.98128 34456 ft 476 kts 273°
2026-05-03 23:11 -38.11350 164.89217 34449 ft 475 kts 273°
2026-05-03 23:11 -38.10913 164.80850 34449 ft 475 kts 273°
2026-05-03 23:12 -38.10472 164.72531 34442 ft 474 kts 273°
2026-05-03 23:12 -38.10025 164.64212 34442 ft 474 kts 273°
2026-05-03 23:13 -38.09574 164.55916 34439 ft 473 kts 273°
2026-05-03 23:13 -38.09114 164.47568 34439 ft 475 kts 273°
2026-05-03 23:14 -38.08615 164.38623 34434 ft 474 kts 273°
2026-05-03 23:14 -38.08097 164.29478 34435 ft 473 kts 274°
2026-05-03 23:15 -38.07579 164.20464 34433 ft 474 kts 274°
2026-05-03 23:15 -38.07063 164.11585 34433 ft 472 kts 274°
2026-05-03 23:16 -38.06544 164.02777 34434 ft 471 kts 274°
2026-05-03 23:16 -38.06028 163.94135 34424 ft 471 kts 274°
2026-05-03 23:17 -38.05532 163.85915 34426 ft 472 kts 274°
2026-05-03 23:17 -38.05026 163.77632 34422 ft 470 kts 274°
2026-05-03 23:18 -38.04503 163.69176 34422 ft 471 kts 274°
2026-05-03 23:18 -38.03939 163.60167 34417 ft 471 kts 274°
2026-05-03 23:19 -38.03377 163.51277 34417 ft 470 kts 274°
2026-05-03 23:19 -38.02835 163.42828 34412 ft 470 kts 274°
2026-05-03 23:20 -38.02306 163.34659 34405 ft 469 kts 275°
2026-05-03 23:20 -38.01767 163.26427 34408 ft 470 kts 275°
2026-05-03 23:21 -38.01220 163.18159 34405 ft 471 kts 275°
2026-05-03 23:21 -38.00668 163.09912 34409 ft 470 kts 275°
2026-05-03 23:22 -37.99227 162.97609 34410 ft 471 kts 286°
2026-05-03 23:22 -37.97375 162.89694 34396 ft 470 kts 287°
2026-05-03 23:23 -37.95461 162.81734 34398 ft 471 kts 287°
2026-05-03 23:23 -37.93536 162.73845 34392 ft 470 kts 287°
2026-05-03 23:24 -37.91596 162.65962 34391 ft 470 kts 287°
2026-05-03 23:24 -37.89646 162.58090 34392 ft 470 kts 287°
2026-05-03 23:25 -37.87593 162.49840 34386 ft 470 kts 287°
2026-05-03 23:25 -37.85584 162.41805 34389 ft 470 kts 287°
2026-05-03 23:26 -37.83607 162.33922 34388 ft 468 kts 288°
2026-05-03 23:26 -37.81649 162.26146 34387 ft 469 kts 288°
2026-05-03 23:27 -37.79659 162.18263 34387 ft 469 kts 288°
2026-05-03 23:27 -37.77686 162.10475 34383 ft 468 kts 288°
2026-05-03 23:28 -37.75699 162.02657 34385 ft 469 kts 288°
2026-05-03 23:28 -37.73705 161.94835 34395 ft 470 kts 288°
2026-05-03 23:29 -37.71707 161.87021 34381 ft 468 kts 288°
2026-05-03 23:29 -37.69698 161.79190 34379 ft 468 kts 288°